Dallas/Ft Worth, TX

5:43 PM CDT on March 27, 2017 (GMT -0500)
Dallas-Fort Worth International

Weather History for KDFW - April, 2014

Change the Weather History Date:

Monday, April 14, 2014

  Actual Average Record
Temperature  
Mean Temperature 52 °F 65 °F  
Max Temperature 61 °F 76 °F 91 °F (1951)
Min Temperature 43 °F 54 °F 35 °F (1997)
Degree Days  
Heating Degree Days 13 3  
Month to date heating degree days 62 56  
Since 1 July heating degree days 2556 2249  
Cooling Degree Days 0 3  
Month to date cooling degree days 61 34  
Year to date cooling degree days 83 73  
Moisture  
Dew Point 35 °F    
Average Humidity 60    
Maximum Humidity 78    
Minimum Humidity 41    
Precipitation  
Precipitation T in 0.08 in 1.40 in (1990)
Month to date precipitation 1.02 1.22  
Year to date precipitation 3.21 9.50  
Snow  
Snow 0.00 in 0.00 in T in (1928)
Month to date snowfall 0.0 0.0  
Since 1 July snowfall 2.9 1.6  
Snow Depth 0.00 in    
Sea Level Pressure  
Sea Level Pressure 30.02 in    
Wind  
Wind Speed 22 mph (NNW)    
Max Wind Speed 32 mph    
Max Gust Speed 39 mph    
Visibility 10 miles    
Events      
T = Trace of Precipitation, MM = Missing Value Source: NWS Daily Summary

Daily Weather History Graph

Daily Weather History Graph

Search for Another Location

Airport or City:

Trip Planner

Search our weather history database for the weather conditions in past years. The results will help you decide how hot, cold, wet, or windy it might be!

Date:

Astronomy

Apr. 14, 2014 Rise Set
Actual Time 6:59 AM CDT 7:57 PM CDT
Civil Twilight 6:34 AM CDT 8:23 PM CDT
Nautical Twilight 6:04 AM CDT 8:53 PM CDT
Astronomical Twilight 5:33 AM CDT 9:24 PM CDT
Moon 7:38 PM CDT (4/14) 6:30 AM CDT (4/14)
Length of Visible Light 13h 48m
Length of Day
12h 58m
Full, 100% of the Moon is Illuminated
Apr 14
Full
Apr 15
Full
Apr 22
Last Quarter
Apr 29
New
May 6
First Quarter

Hourly Weather History & Observations

Time (CDT) Temp. Windchill Dew Point Humidity Pressure Visibility Wind Dir Wind Speed Gust Speed Precip Events Conditions
12:53 AM 62.1 °F - 55.0 °F 78% 29.71 in 10.0 mi North 24.2 mph 31.1 mph N/A   Mostly Cloudy
1:53 AM 57.9 °F - 48.9 °F 72% 29.75 in 10.0 mi North 19.6 mph 32.2 mph N/A   Overcast
2:53 AM 55.0 °F - 46.9 °F 74% 29.76 in 10.0 mi NNW 21.9 mph 26.5 mph N/A   Overcast
3:53 AM 51.8 °F - 42.8 °F 71% 29.80 in 10.0 mi NNW 26.5 mph 31.1 mph N/A   Overcast
4:53 AM 48.9 °F - 37.9 °F 66% 29.83 in 10.0 mi NNW 28.8 mph 35.7 mph N/A   Overcast
5:53 AM 46.9 °F - 37.0 °F 68% 29.87 in 10.0 mi NNW 21.9 mph 33.4 mph N/A   Overcast
6:53 AM 46.4 °F 38.3 °F 35.6 °F 66% 29.94 in 10.0 mi NNW 23.0 mph 29.9 mph N/A   Overcast
7:53 AM 45.0 °F 36.0 °F 35.1 °F 68% 29.96 in 10.0 mi NNW 25.3 mph 33.4 mph N/A   Overcast
8:53 AM 45.0 °F 37.9 °F 36.0 °F 71% 29.99 in 10.0 mi NNW 16.1 mph 24.2 mph N/A   Overcast
9:17 AM 46.0 °F 36.9 °F 35.1 °F 66% 30.00 in 10.0 mi North 28.8 mph 34.5 mph N/A   Overcast
9:26 AM 46.0 °F 38.3 °F 35.1 °F 66% 30.01 in 10.0 mi NNW 20.7 mph 34.5 mph N/A   Overcast
9:53 AM 46.0 °F 37.0 °F 36.0 °F 68% 30.01 in 10.0 mi NNW 27.6 mph 34.5 mph N/A   Overcast
10:53 AM 46.9 °F - 34.0 °F 61% 30.04 in 10.0 mi NNW 27.6 mph 36.8 mph N/A   Overcast
11:53 AM 46.9 °F - 33.1 °F 59% 30.06 in 10.0 mi NNW 28.8 mph 39.1 mph N/A   Overcast
12:53 PM 48.2 °F - 33.8 °F 58% 30.10 in 10.0 mi North 25.3 mph 33.4 mph N/A   Overcast
1:02 PM 46.9 °F - 33.1 °F 59% 30.11 in 10.0 mi NNW 26.5 mph 35.7 mph N/A   Overcast
1:53 PM 48.0 °F - 32.0 °F 54% 30.12 in 10.0 mi North 19.6 mph 33.4 mph N/A   Overcast
2:53 PM 48.9 °F - 32.0 °F 52% 30.11 in 10.0 mi North 28.8 mph 33.4 mph N/A   Overcast
3:53 PM 51.8 °F - 32.0 °F 47% 30.09 in 10.0 mi North 27.6 mph 35.7 mph N/A   Mostly Cloudy
4:53 PM 52.0 °F - 32.0 °F 47% 30.09 in 10.0 mi North 27.6 mph 31.1 mph N/A   Mostly Cloudy
5:53 PM 53.1 °F - 30.9 °F 43% 30.09 in 10.0 mi North 27.6 mph 34.5 mph N/A   Mostly Cloudy
6:53 PM 52.0 °F - 28.9 °F 41% 30.12 in 10.0 mi NNW 23.0 mph - N/A   Scattered Clouds
7:53 PM 50.0 °F - 28.9 °F 44% 30.14 in 10.0 mi North 15.0 mph - N/A   Partly Cloudy
8:53 PM 48.9 °F - 28.9 °F 46% 30.17 in 10.0 mi North 16.1 mph - N/A   Clear
9:53 PM 46.0 °F 41.4 °F 30.0 °F 54% 30.22 in 10.0 mi North 9.2 mph - N/A   Clear
10:53 PM 45.0 °F 40.6 °F 30.9 °F 58% 30.24 in 10.0 mi NNW 8.1 mph - N/A   Clear
11:53 PM 44.1 °F 37.7 °F 27.0 °F 51% 30.26 in 10.0 mi NNW 12.7 mph - N/A   Clear